"2016-05-19 00:00:00",1645851,1.442,142.9,6.167,0.274,16.89,105.8049,14.13,15.17,45.24,0,110.9,13.07,14.93,104.9
"2016-05-19 00:00:30",1645852,1.23,139.2,6.477,0.15,16.79,105.8046,14.13,15.17,45.06,0,110.9,13.07,14.93,101.2
"2016-05-19 00:01:00",1645853,1.269,117.6,13.44,0.273,16.66,105.7925,14.1,15.17,45.74,0,110.9,13.07,14.90,79.6
"2016-05-19 00:01:30",1645854,1.654,106.7,10.52,0.246,16.55,105.7706,14.05,15.13,46.29,0,110.8,13.07,14.85,68.7
"2016-05-19 00:02:00",1645855,1.555,90.5,5.765,0.302,16.5,105.7414,13.97,15.08,46.46,0,110.8,13.07,14.77,52.5
"2016-05-19 00:02:30",1645856,1.624,93.6,6.133,0.313,16.44,105.7374,13.96,15.04,46.65,0,110.8,13.07,14.76,55.6
"2016-05-19 00:03:00",1645857,1.972,88,3.205,0.14,16.34,105.7374,13.96,15.01,46.76,0,110.8,13.07,14.76,50.0
"2016-05-19 00:03:30",1645858,1.627,86.7,5.04,0.154,16.27,105.7374,13.96,14.99,46.85,0,110.8,13.07,14.76,48.7
"2016-05-19 00:04:00",1645859,1.445,94.1,5.702,0.168,16.26,105.7374,13.96,14.99,46.96,0,110.8,13.07,14.76,56.1
"2016-05-19 00:04:30",1645860,1.418,92.8,3.972,0.18,16.28,105.7374,13.96,14.99,47.09,0,110.8,13.08,14.76,54.8
"2016-05-19 00:05:00",1645861,1.152,91.3,5.029,0.097,16.22,105.7374,13.96,15,47.05,0,110.8,13.08,14.76,53.3
"2016-05-19 00:05:30",1645862,1.004,93.7,5.168,0.076,16.17,105.7414,13.97,15,46.92,0,110.8,13.09,14.77,55.7
"2016-05-19 00:06:00",1645863,1.202,88.6,8.54,0.124,16.18,105.7563,14.01,15.01,46.8,0,110.8,13.09,14.81,50.6
"2016-05-19 00:06:30",1645864,0.91,79.69,4.745,0.075,16.15,105.7686,14.04,15.04,46.58,0,110.8,13.09,14.84,41.7
"2016-05-19 00:07:00",1645865,0.852,74.28,4.745,0.117,16.14,105.7712,14.05,15.05,46.52,0,110.8,13.09,14.85,36.3
"2016-05-19 00:07:30",1645866,0.884,68.01,15.92,0.15,16.04,105.7729,14.05,15.09,46.52,0,110.8,13.09,14.85,30.0
"2016-05-19 00:08:00",1645867,0.548,102.7,8.52,0.132,16.07,105.7942,14.11,15.1,46.51,0,110.8,13.09,14.91,64.7
"2016-05-19 00:08:30",1645868,0.849,81.6,13.44,0.204,16.02,105.8047,14.13,15.11,46.34,0,110.8,13.09,14.93,43.6
"2016-05-19 00:09:00",1645869,1.08,71.31,4.157,0.136,15.95,105.8052,14.13,15.13,46.18,0,110.8,13.09,14.94,33.3
"2016-05-19 00:09:30",1645870,0.81,90,15.01,0.193,16.05,105.8224,14.18,15.16,45.95,0,110.8,13.09,14.98,52.0
"2016-05-19 00:10:00",1645871,0.518,114.3,6.277,0.109,16.07,105.8384,14.22,15.19,45.98,0,110.8,13.09,15.02,76.3
"2016-05-19 00:10:30",1645872,0.876,102.2,5.786,0.122,16.21,105.8393,14.22,15.22,45.73,0,110.8,13.09,15.02,64.2
"2016-05-19 00:11:00",1645873,0.551,97.6,8.02,0.178,16.24,105.8542,14.26,15.25,45.43,0,110.8,13.09,15.06,59.6
"2016-05-19 00:11:30",1645874,0.845,85.8,5.576,0.098,16.48,105.8705,14.3,15.27,45.2,0,110.8,13.09,15.10,47.8
"2016-05-19 00:12:00",1645875,0.776,88.8,6.353,0.209,16.57,105.8745,14.31,15.3,45.23,0,110.8,13.09,15.11,50.8
"2016-05-19 00:12:30",1645876,0.614,79.09,2.433,0.097,16.53,105.8853,14.34,15.32,44.96,0,110.8,13.09,15.14,41.1
"2016-05-19 00:13:00",1645877,0.707,64.03,12.14,0.104,16.59,105.9028,14.38,15.35,45.07,0,110.8,13.09,15.19,26.0
"2016-05-19 00:13:30",1645878,0.422,58.59,12.81,0.141,16.6,105.9142,14.41,15.38,44.93,0,110.8,13.09,15.22,20.6
"2016-05-19 00:14:00",1645879,0.395,105.4,10.28,0.149,16.54,105.9151,14.42,15.42,44.93,0,110.8,13.09,15.22,67.4
"2016-05-19 00:14:30",1645880,0.654,98.1,7.953,0.179,16.57,105.9281,14.45,15.42,44.66,0,110.8,13.09,15.25,60.1
"2016-05-19 00:15:00",1645881,0.589,106.5,5.194,0.167,16.52,105.9424,14.49,15.45,44.01,0,110.8,13.09,15.29,68.5
"2016-05-19 00:15:30",1645882,0.312,102.6,7.078,0.085,16.43,105.9486,14.5,15.48,43.75,0,110.8,13.09,15.30,64.6
"2016-05-19 00:16:00",1645883,0.316,97.7,14.24,0.159,16.34,105.9501,14.5,15.5,43.5,0,110.8,13.09,15.31,59.7
"2016-05-19 00:16:30",1645884,0.452,87.4,3.588,0.08,16.27,105.9519,14.51,15.51,43.68,0,110.8,13.09,15.31,49.4
"2016-05-19 00:17:00",1645885,0.31,88.5,12.92,0.196,16.2,105.9553,14.52,15.53,43.79,0,110.8,13.08,15.32,50.5
"2016-05-19 00:17:30",1645886,0.038,83.5,13.15,0.093,16.19,105.9678,14.55,15.56,43.91,0,110.8,13.08,15.35,45.5
"2016-05-19 00:18:00",1645887,0.207,98.3,12.22,0.087,16.19,105.9731,14.56,15.55,43.96,0,110.8,13.08,15.37,60.3
"2016-05-19 00:18:30",1645888,0.225,88.4,5.927,0.064,16.11,105.9814,14.59,15.58,43.84,0,110.8,13.08,15.39,50.4
"2016-05-19 00:19:00",1645889,0.065,50.94,7.5,0.06,16.18,105.9907,14.61,15.59,43.67,0,110.8,13.08,15.41,12.9
"2016-05-19 00:19:30",1645890,0.285,46.7,5.391,0.149,16.04,105.9895,14.61,15.61,43.58,0,110.8,13.07,15.41,8.7
"2016-05-19 00:20:00",1645891,0.614,41.13,6.505,0.136,16.13,105.9955,14.62,15.62,43.83,0,110.8,13.08,15.42,3.1
"2016-05-19 00:20:30",1645892,0.466,28.74,18.42,0.15,16.2,106.0166,14.68,15.65,44.19,0,110.8,13.08,15.48,350.7
"2016-05-19 00:21:00",1645893,0.283,0.754,8.07,0.122,16.3,106.0232,14.69,15.67,43.42,0,110.8,13.08,15.50,322.8
"2016-05-19 00:21:30",1645894,0.442,5.521,5.905,0.156,16.4,106.022,14.69,15.71,43.53,0,110.8,13.08,15.49,327.5
"2016-05-19 00:22:00",1645895,0.583,355,3.825,0.123,16.5,106.0347,14.72,15.72,43.63,0,110.8,13.08,15.53,317.0
"2016-05-19 00:22:30",1645896,0.625,8.93,6.927,0.219,16.54,106.0564,14.78,15.76,43.66,0,110.8,13.08,15.58,330.9
"2016-05-19 00:23:00",1645897,0.454,24.67,8.2,0.147,16.5,106.0561,14.78,15.77,43.71,0,110.8,13.09,15.58,346.7
"2016-05-19 00:23:30",1645898,0.414,23.06,15.6,0.159,16.49,106.0584,14.78,15.79,43.52,0,110.8,13.09,15.59,345.1
"2016-05-19 00:24:00",1645899,0.437,23.15,13.43,0.134,16.46,106.0813,14.84,15.82,43.59,0,110.8,13.09,15.64,345.1
"2016-05-19 00:24:30",1645900,0.43,39.7,3.948,0.121,16.53,106.0932,14.87,15.84,43.75,0,110.8,13.09,15.68,1.7
"2016-05-19 00:25:00",1645901,0.489,52.19,7.952,0.128,16.47,106.0949,14.88,15.86,43.76,0,110.8,13.09,15.68,14.2
"2016-05-19 00:25:30",1645902,0.461,69.04,6.666,0.088,16.51,106.0958,14.88,15.87,43.82,0,110.8,13.09,15.68,31.0
"2016-05-19 00:26:00",1645903,0.25,82.5,5.816,0.047,16.42,106.1091,14.91,15.89,43.92,0,110.8,13.09,15.72,44.5
"2016-05-19 00:26:30",1645904,0.287,87.8,11.19,0.09,16.41,106.124,14.95,15.91,43.85,0,110.8,13.09,15.75,49.8
"2016-05-19 00:27:00",1645905,0.222,61.55,5.677,0.112,16.46,106.1293,14.96,15.93,43.77,0,110.8,13.09,15.77,23.5
"2016-05-19 00:27:30",1645906,0.307,42.79,7.034,0.171,16.46,106.1302,14.97,15.97,43.66,0,110.8,13.09,15.77,4.8
"2016-05-19 00:28:00",1645907,0.096,8.96,16.94,0.064,16.67,106.1331,14.97,15.97,43.51,0,110.8,13.09,15.78,331.0
"2016-05-19 00:28:30",1645908,-0.09,12.89,13.07,0.09,16.48,106.1518,15.02,15.98,43.37,0,110.8,13.09,15.83,334.9
"2016-05-19 00:29:00",1645909,0.161,36.41,8.42,0.062,16.51,106.1647,15.05,15.99,43.23,0,110.8,13.09,15.86,358.4
"2016-05-19 00:29:30",1645910,0.189,62.56,11.09,0.117,16.52,106.1672,15.06,16.03,43.17,0,110.8,13.09,15.87,24.6
"2016-05-19 00:30:00",1645911,0.412,71.05,3.493,0.083,16.52,106.1645,15.05,16.04,43.35,0,110.8,13.09,15.86,33.1
"2016-05-19 00:30:30",1645912,0.32,82.1,8.08,0.122,16.55,106.1678,15.06,16.05,43.52,0,110.8,13.09,15.87,44.1
"2016-05-19 00:31:00",1645913,0.544,82.8,5.058,0.077,16.51,106.1763,15.08,16.07,43.51,0,110.8,13.09,15.89,44.8
"2016-05-19 00:31:30",1645914,0.27,67.78,9.55,0.09,16.62,106.195,15.13,16.08,43.61,0,110.8,13.09,15.94,29.8
"2016-05-19 00:32:00",1645915,0.196,51.61,5.348,0.043,16.69,106.2037,15.15,16.1,43.56,0,110.8,13.09,15.96,13.6
"2016-05-19 00:32:30",1645916,0.189,54.53,10.45,0.033,16.67,106.2042,15.16,16.1,43.61,0,110.8,13.09,15.96,16.5
"2016-05-19 00:33:00",1645917,0.407,59.24,7.341,0.087,16.64,106.2048,15.16,16.12,43.64,0,110.8,13.09,15.96,21.2
"2016-05-19 00:33:30",1645918,0.499,57.67,4.125,0.092,16.57,106.2048,15.16,16.15,43.57,0,110.8,13.09,15.96,19.7
"2016-05-19 00:34:00",1645919,0.471,67.62,4.164,0.085,16.68,106.2048,15.16,16.16,43.57,0,110.8,13.08,15.96,29.6
"2016-05-19 00:34:30",1645920,0.709,77.54,3.966,0.078,16.7,106.2069,15.16,16.17,43.48,0,110.8,13.08,15.97,39.5
"2016-05-19 00:35:00",1645921,0.895,59.34,6.774,0.111,16.72,106.2078,15.17,16.16,42.92,0,110.8,13.08,15.97,21.3
"2016-05-19 00:35:30",1645922,0.958,70.45,5.642,0.06,16.88,106.2092,15.17,16.19,42.03,0,110.8,13.07,15.97,32.4
"2016-05-19 00:36:00",1645923,0.96,67.26,4.635,0.081,16.94,106.2129,15.18,16.19,41.21,0,110.8,13.07,15.98,29.3
"2016-05-19 00:36:30",1645924,0.73,64.4,9.24,0.071,16.72,106.2116,15.17,16.19,40.77,0,110.8,13.07,15.98,26.4
"2016-05-19 00:37:00",1645925,0.751,65.37,7.711,0.166,16.83,106.2151,15.18,16.19,40.57,0,110.8,13.07,15.99,27.4
"2016-05-19 00:37:30",1645926,0.62,54.87,10.19,0.088,16.86,106.2126,15.18,16.21,40.45,0,110.8,13.07,15.98,16.9
"2016-05-19 00:38:00",1645927,0.453,47.98,4.273,0.118,16.63,106.212,15.18,16.2,40.86,0,110.8,13.07,15.98,10.0
"2016-05-19 00:38:30",1645928,0.402,62.24,8.8,0.104,16.95,106.212,15.18,16.2,41.86,0,110.8,13.07,15.98,24.2
"2016-05-19 00:39:00",1645929,0.627,52.3,5.543,0.089,16.76,106.212,15.18,16.2,41.82,0,110.8,13.08,15.98,14.3
"2016-05-19 00:39:30",1645930,0.577,53.75,2.23,0.037,16.64,106.212,15.18,16.19,41.64,0,110.8,13.08,15.98,15.8
"2016-05-19 00:40:00",1645931,0.558,61.73,6.701,0.055,16.94,106.212,15.18,16.19,41.47,0,110.8,13.09,15.98,23.7
"2016-05-19 00:40:30",1645932,0.543,58,5.064,0.098,16.84,106.212,15.18,16.19,41.36,0,110.8,13.09,15.98,20.0
"2016-05-19 00:41:00",1645933,0.546,59.82,6.969,0.064,16.86,106.2098,15.17,16.18,41.33,0,110.8,13.09,15.98,21.8
"2016-05-19 00:41:30",1645934,0.464,64.21,3.983,0.094,17,106.1954,15.13,16.18,41.59,0,110.8,13.09,15.94,26.2
"2016-05-19 00:42:00",1645935,0.389,54.84,8.51,0.059,16.94,106.1783,15.09,16.16,41.83,0,110.8,13.09,15.89,16.8
"2016-05-19 00:42:30",1645936,0.514,57.43,7.725,0.057,16.83,106.1757,15.08,16.14,42.12,0,110.8,13.09,15.89,19.4
"2016-05-19 00:43:00",1645937,0.406,45.98,6.708,0.086,16.73,106.149,15.01,16.11,42.59,0,110.8,13.09,15.82,8.0
"2016-05-19 00:43:30",1645938,0.337,51.77,3.607,0.117,16.84,106.1445,15,16.08,42.93,0,110.8,13.09,15.81,13.8
"2016-05-19 00:44:00",1645939,0.347,50.66,6.519,0.091,16.86,106.1445,15,16.07,43.21,0,110.8,13.09,15.81,12.7
"2016-05-19 00:44:30",1645940,0.419,42.56,11.35,0.058,16.87,106.1327,14.97,16.04,43.29,0,110.8,13.09,15.78,4.6
"2016-05-19 00:45:00",1645941,0.44,21.17,3.671,0.121,17.14,106.1141,14.93,16,43.45,0,110.8,13.09,15.73,343.2
"2016-05-19 00:45:30",1645942,0.086,16.08,11.44,0.125,17.31,106.1107,14.92,15.99,43.86,0,110.8,13.09,15.72,338.1
"2016-05-19 00:46:00",1645943,0.437,19.11,10.94,0.245,17.15,106.0975,14.88,15.97,44.12,0,110.8,13.09,15.69,341.1
"2016-05-19 00:46:30",1645944,0.072,10.21,11.33,0.163,17.36,106.077,14.83,15.93,44.32,0,110.8,13.09,15.63,332.2
"2016-05-19 00:47:00",1645945,0.576,20.7,4.065,0.15,17.13,106.077,14.83,15.91,44.47,0,110.8,13.09,15.63,342.7
"2016-05-19 00:47:30",1645946,0.869,28.8,7.09,0.222,17.01,106.0632,14.79,15.87,44.62,0,110.8,13.09,15.60,350.8
"2016-05-19 00:48:00",1645947,0.93,26.94,6.146,0.302,17.02,106.0424,14.74,15.87,45.21,0,110.8,13.09,15.54,348.9
"2016-05-19 00:48:30",1645948,1.351,36.84,4.797,0.803,17.22,106.0176,14.68,15.82,45.61,0,110.8,13.04,15.48,358.8
"2016-05-19 00:49:00",1645949,2.336,29.02,12.63,1.455,20.4,106.0094,14.66,16.06,46.01,0,110.8,13.04,15.46,351.0
"2016-05-19 00:49:30",1645950,2.524,35.87,9.78,1.507,18.93,106.0094,14.66,15.95,45.93,0,110.8,13.04,15.46,357.9
"2016-05-19 00:50:00",1645951,0.229,5.675,13.52,0.224,16.35,106.0044,14.64,15.71,46.19,0,110.8,13.09,15.45,327.7
"2016-05-19 00:50:30",1645952,0.496,15.7,14.21,0.419,15.63,105.9813,14.58,15.69,46.59,0,110.8,13.09,15.39,337.7
"2016-05-19 00:51:00",1645953,1.311,26.93,5.773,0.34,15.37,105.9737,14.57,15.73,46.71,0,110.8,13.09,15.37,348.9
"2016-05-19 00:51:30",1645954,2.819,34.24,8.26,1.515,18.33,105.9659,14.55,15.82,46.59,0,110.8,13.04,15.35,356.2
"2016-05-19 00:52:00",1645955,1.567,26.11,4.992,0.246,15.64,105.9449,14.49,15.65,46.35,0,110.8,13.05,15.29,348.1
"2016-05-19 00:52:30",1645956,1.473,21.08,7.469,0.389,15.79,105.9497,14.5,15.6,46.36,0,110.8,13.09,15.31,343.1
"2016-05-19 00:53:00",1645957,1.763,33.35,6.339,0.343,15.86,105.9445,14.49,15.58,46.49,0,110.8,13.09,15.29,355.4
"2016-05-19 00:53:30",1645958,1.629,32.49,8.48,0.338,16.18,105.9276,14.45,15.55,46.54,0,110.8,13.09,15.25,354.5
"2016-05-19 00:54:00",1645959,1.381,29.96,10.59,0.206,16.37,105.9246,14.44,15.53,46.6,0,110.8,13.09,15.24,352.0
"2016-05-19 00:54:30",1645960,1.422,45.6,8.68,0.193,16.59,105.9146,14.41,15.5,46.75,0,110.8,13.09,15.22,7.6
"2016-05-19 00:55:00",1645961,1.302,48.78,5.863,0.19,16.59,105.9,14.38,15.47,46.92,0,110.8,13.09,15.18,10.8
"2016-05-19 00:55:30",1645962,1.019,46.86,4.192,0.14,16.77,105.9035,14.39,15.46,46.97,0,110.8,13.09,15.19,8.9
"2016-05-19 00:56:00",1645963,1.255,34.58,7.993,0.416,16.77,105.885,14.34,15.43,47.07,0,110.8,13.09,15.14,356.6
"2016-05-19 00:56:30",1645964,1.61,28.11,3.248,0.297,16.85,105.875,14.31,15.41,47.12,0,110.8,13.09,15.11,350.1
"2016-05-19 00:57:00",1645965,2.075,30.79,9.22,1.274,18.43,105.8603,14.28,15.49,47.31,0,110.8,13.05,15.08,352.8
"2016-05-19 00:57:30",1645966,2.279,52.39,10.02,1.314,18.4,105.8429,14.23,15.52,47.5,0,110.8,13.05,15.03,14.4
"2016-05-19 00:58:00",1645967,2.977,61.04,9.41,1.463,19.43,105.839,14.22,15.51,47.65,0,110.7,13.05,15.02,23.0
"2016-05-19 00:58:30",1645968,1.573,50.53,2.633,0.556,16.53,105.8131,14.15,15.35,47.67,0,110.8,13.06,14.96,12.5
"2016-05-19 00:59:00",1645969,1.375,50.5,5.69,0.319,15.89,105.8088,14.14,15.27,47.72,0,110.7,13.1,14.94,12.5
"2016-05-19 00:59:30",1645970,2.068,53.92,5.399,0.157,15.73,105.7894,14.09,15.23,47.86,0,110.7,13.1,14.89,15.9
"2016-05-19 01:00:00",1645971,2.441,47.95,4.868,0.961,16.77,105.7751,14.06,15.31,48.05,0,110.7,13.06,14.86,10.0
"2016-05-19 01:00:30",1645972,3.006,48.47,7.105,1.311,17.71,105.7604,14.02,15.26,48.05,0,110.8,13.06,14.82,10.5
"2016-05-19 01:01:00",1645973,2.531,45.39,5.208,0.741,16.67,105.7421,13.97,15.23,48.01,0,110.7,13.06,14.77,7.4
"2016-05-19 01:01:30",1645974,2.642,46.71,3.111,0.113,16.2,105.7231,13.92,15.09,47.94,0,110.7,13.11,14.72,8.7
"2016-05-19 01:02:00",1645975,2.514,42,2.094,0.14,16.44,105.7135,13.9,15.06,47.98,0,110.7,13.11,14.70,4.0
"2016-05-19 01:02:30",1645976,2.495,41.96,1.35,0.076,16.53,105.6911,13.84,15.02,48.07,0,110.7,13.11,14.64,4.0
"2016-05-19 01:03:00",1645977,2.453,44.84,1.746,0.097,16.77,105.6858,13.83,15,48.21,0,110.7,13.11,14.63,6.8
"2016-05-19 01:03:30",1645978,2.538,47.35,2.743,0.121,16.71,105.6712,13.79,14.97,48.33,0,110.7,13.12,14.59,9.3
"2016-05-19 01:04:00",1645979,3.1,54.21,4.612,1.401,18.35,105.6701,13.79,15,48.58,0,110.7,13.07,14.59,16.2
"2016-05-19 01:04:30",1645980,2.697,49.28,6.56,1.236,18.42,105.6475,13.73,15.05,48.77,0,110.7,13.07,14.53,11.3
"2016-05-19 01:05:00",1645981,3.379,59.79,6.987,1.379,19.31,105.6391,13.71,15.08,48.93,0,110.7,13.07,14.51,21.8
"2016-05-19 01:05:30",1645982,2.328,57.29,7.558,1.104,17.16,105.6171,13.65,14.85,48.92,0,110.7,13.07,14.45,19.3
"2016-05-19 01:06:00",1645983,2.189,47.48,2.885,0.183,15.95,105.6081,13.63,14.77,49.04,0,110.7,13.12,14.43,9.5
"2016-05-19 01:06:30",1645984,2.348,45.91,3.257,0.151,15.82,105.5878,13.58,14.75,49.16,0,110.7,13.12,14.38,7.9
"2016-05-19 01:07:00",1645985,2.388,45.68,2.181,0.261,15.95,105.5743,13.54,14.71,49.29,0,110.7,13.12,14.34,7.7
"2016-05-19 01:07:30",1645986,2.582,45.07,6.385,1.27,17.37,105.567,13.52,14.79,49.47,0,110.7,13.07,14.32,7.1
"2016-05-19 01:08:00",1645987,2.709,52.05,10.14,1.29,17.79,105.5417,13.46,14.82,49.6,0,110.7,13.07,14.26,14.0
"2016-05-19 01:08:30",1645988,1.803,47.32,5.501,0.779,16.75,105.54,13.45,14.65,49.61,0,110.7,13.07,14.25,9.3
"2016-05-19 01:09:00",1645989,1.193,34.84,4.315,0.305,16.33,105.5259,13.42,14.59,49.69,0,110.7,13.12,14.22,356.8
"2016-05-19 01:09:30",1645990,1.335,32.47,4.127,0.233,16.41,105.5079,13.37,14.55,49.75,0,110.7,13.12,14.17,354.5
"2016-05-19 01:10:00",1645991,1.519,40.85,4.076,0.205,16.58,105.5054,13.37,14.51,49.81,0,110.7,13.12,14.16,2.8
"2016-05-19 01:10:30",1645992,1.897,46.97,1.798,0.113,16.82,105.4901,13.33,14.49,49.92,0,110.7,13.12,14.13,9.0
"2016-05-19 01:11:00",1645993,1.673,41.11,4.22,0.245,16.87,105.4816,13.31,14.49,50.02,0,110.7,13.12,14.10,3.1
"2016-05-19 01:11:30",1645994,2.383,44.49,6.281,1.312,18.4,105.4825,13.31,14.56,50.22,0,110.7,13.07,14.11,6.5
"2016-05-19 01:12:00",1645995,3.046,47.86,9.02,1.497,19.54,105.4748,13.29,14.61,50.26,0,110.6,13.07,14.09,9.9
"2016-05-19 01:12:30",1645996,2.558,42.48,7.257,1.313,17.94,105.465,13.26,14.52,50.26,0,110.6,13.07,14.06,4.5
"2016-05-19 01:13:00",1645997,1.762,38.43,6.471,1.118,17.08,105.4692,13.27,14.44,50.25,0,110.6,13.07,14.07,0.4
"2016-05-19 01:13:30",1645998,1.665,39.46,1.713,0.13,15.84,105.4629,13.26,14.35,50.2,0,110.6,13.12,14.06,1.5
"2016-05-19 01:14:00",1645999,1.919,39.68,1.194,0.156,15.78,105.4416,13.2,14.33,50.2,0,110.6,13.12,14.00,1.7
"2016-05-19 01:14:30",1646000,2.124,42.22,1.113,0.048,15.89,105.441,13.2,14.31,50.22,0,110.6,13.13,14.00,4.2
"2016-05-19 01:15:00",1646001,2.2,43.32,1.505,0.146,16.11,105.4385,13.19,14.27,50.33,0,110.6,13.13,13.99,5.3
"2016-05-19 01:15:30",1646002,2.298,43.45,0.954,0.077,16.24,105.4224,13.15,14.26,50.49,0,110.6,13.13,13.95,5.5
"2016-05-19 01:16:00",1646003,3.072,45.52,7.032,1.383,18.34,105.4078,13.12,14.38,50.7,0,110.6,13.08,13.91,7.5
"2016-05-19 01:16:30",1646004,3.373,45.03,7.628,1.466,18.99,105.4072,13.11,14.33,50.65,0,110.6,13.08,13.91,7.0
"2016-05-19 01:17:00",1646005,1.741,32.88,2.23,0.168,16.59,105.4036,13.11,14.22,50.52,0,110.6,13.13,13.90,354.9
"2016-05-19 01:17:30",1646006,1.624,32.72,3.301,0.294,16.58,105.394,13.08,14.19,50.55,0,110.6,13.13,13.88,354.7
"2016-05-19 01:18:00",1646007,1.32,30.14,3.426,0.195,16.66,105.3754,13.03,14.16,50.66,0,110.6,13.13,13.83,352.1
"2016-05-19 01:18:30",1646008,1.664,31.81,3.182,0.232,16.86,105.3734,13.03,14.19,50.83,0,110.6,13.13,13.83,353.8
"2016-05-19 01:19:00",1646009,2.929,43.09,8.53,1.56,19.73,105.3734,13.03,14.32,51.09,0,110.6,13.09,13.83,5.1
"2016-05-19 01:19:30",1646010,2.051,37.8,8.56,1.371,18.44,105.3718,13.02,14.27,51.18,0,110.6,13.09,13.82,359.8
"2016-05-19 01:20:00",1646011,2.089,35.42,5.192,1.414,17.78,105.3631,13,14.25,51.25,0,110.6,13.09,13.80,357.4
"2016-05-19 01:20:30",1646012,1.178,32.83,3.202,0.152,15.87,105.3485,12.96,14.09,51.13,0,110.6,13.14,13.76,354.8
"2016-05-19 01:21:00",1646013,1.432,34.81,3.633,0.236,15.6,105.3509,12.97,14.08,51.21,0,110.6,13.14,13.77,356.8
"2016-05-19 01:21:30",1646014,1.57,38.59,4.02,0.351,15.72,105.3571,12.99,14.06,51.31,0,110.6,13.14,13.78,0.6
"2016-05-19 01:22:00",1646015,1.138,32.52,3.056,0.153,15.86,105.359,12.99,14.05,51.39,0,110.6,13.14,13.79,354.5
"2016-05-19 01:22:30",1646016,1.271,31.26,3.352,0.166,16.03,105.346,12.96,14.02,51.42,0,110.6,13.14,13.76,353.3
"2016-05-19 01:23:00",1646017,1.592,31.08,3.039,0.244,16.2,105.3406,12.94,14.01,51.4,0,110.6,13.14,13.74,353.1
"2016-05-19 01:23:30",1646018,1.717,24.83,2.018,0.208,16.33,105.3414,12.95,14.01,51.44,0,110.5,13.14,13.74,346.8
"2016-05-19 01:24:00",1646019,2.014,25.79,3.434,0.183,16.52,105.3414,12.95,13.99,51.5,0,110.5,13.15,13.74,347.8
"2016-05-19 01:24:30",1646020,2.315,26.26,4.913,0.99,17.55,105.3398,12.94,14.07,51.68,0,110.5,13.1,13.74,348.3
"2016-05-19 01:25:00",1646021,3.184,29.23,6.745,1.345,18.57,105.3307,12.92,14.07,51.73,0,110.5,13.1,13.72,351.2
"2016-05-19 01:25:30",1646022,2.159,29.91,5.82,0.937,17.24,105.3254,12.91,14,51.71,0,110.5,13.1,13.70,351.9
"2016-05-19 01:26:00",1646023,2.649,35.47,8.58,1.399,18.53,105.3127,12.87,14.04,51.83,0,110.5,13.09,13.67,357.5
"2016-05-19 01:26:30",1646024,3.656,33.52,7.211,1.45,19.21,105.3076,12.86,14.1,51.93,0,110.5,13.09,13.66,355.5
"2016-05-19 01:27:00",1646025,3.183,32.26,7.377,1.482,18.7,105.3076,12.86,14.11,52.07,0,110.5,13.09,13.66,354.3
"2016-05-19 01:27:30",1646026,1.99,24.91,1.892,0.152,15.83,105.3074,12.86,13.92,51.97,0,110.5,13.14,13.66,346.9
"2016-05-19 01:28:00",1646027,1.733,30.05,2.746,0.197,15.57,105.3017,12.84,13.91,52.02,0,110.5,13.14,13.64,352.0
"2016-05-19 01:28:30",1646028,1.666,27.85,3.665,0.251,15.54,105.2933,12.82,13.89,52.06,0,110.5,13.14,13.62,349.9
"2016-05-19 01:29:00",1646029,1.781,28.54,3.431,0.189,15.82,105.2758,12.78,13.88,52.13,0,110.5,13.14,13.58,350.5
"2016-05-19 01:29:30",1646030,1.83,35.6,4.106,0.304,16.05,105.2738,12.77,13.87,52.12,0,110.5,13.14,13.57,357.6
"2016-05-19 01:30:00",1646031,2.136,33.83,2.374,0.238,16.32,105.2738,12.77,13.86,52.09,0,110.5,13.14,13.57,355.8
"2016-05-19 01:30:30",1646032,1.934,35.8,2.693,0.337,16.56,105.2768,12.78,13.84,52.08,0,110.5,13.14,13.58,357.8
"2016-05-19 01:31:00",1646033,1.906,32.3,5.737,0.264,16.65,105.2757,12.78,13.85,52.05,0,110.5,13.15,13.57,354.3
"2016-05-19 01:31:30",1646034,1.807,25.27,2.188,0.177,16.7,105.2663,12.75,13.84,52.12,0,110.5,13.15,13.55,347.3
"2016-05-19 01:32:00",1646035,1.641,29.02,4.74,0.171,16.83,105.2512,12.72,13.81,52.22,0,110.5,13.15,13.51,351.0
"2016-05-19 01:32:30",1646036,2.638,34.43,6.106,1.552,18.64,105.2531,12.72,13.94,52.25,0,110.5,13.1,13.52,356.4
"2016-05-19 01:33:00",1646037,2.981,41.6,8.17,1.397,19.81,105.2575,12.73,14.07,52.43,0,110.5,13.1,13.53,3.6
"2016-05-19 01:33:30",1646038,3.445,43.36,8.73,1.428,19.99,105.2635,12.75,13.92,52.31,0,110.5,13.1,13.54,5.4
"2016-05-19 01:34:00",1646039,2.475,39.93,6.769,1.372,17.91,105.2613,12.74,13.91,52.32,0,110.5,13.1,13.54,1.9
"2016-05-19 01:34:30",1646040,1.779,36.75,2.571,0.166,15.98,105.2522,12.72,13.77,51.98,0,110.5,13.15,13.51,358.8
"2016-05-19 01:35:00",1646041,1.508,31.95,3.125,0.207,15.62,105.2408,12.69,13.74,52.01,0,110.5,13.15,13.49,354.0
"2016-05-19 01:35:30",1646042,1.455,31.78,2.379,0.172,15.58,105.2418,12.69,13.75,52.09,0,110.5,13.15,13.49,353.8
"2016-05-19 01:36:00",1646043,1.295,32.31,2.285,0.092,15.73,105.2418,12.69,13.74,52.14,0,110.5,13.15,13.49,354.3
"2016-05-19 01:36:30",1646044,1.205,30.69,1.764,0.076,15.87,105.2418,12.69,13.73,52.12,0,110.5,13.15,13.49,352.7
"2016-05-19 01:37:00",1646045,1.345,29.62,1.954,0.139,16.07,105.2412,12.69,13.71,52.2,0,110.5,13.16,13.49,351.6
"2016-05-19 01:37:30",1646046,1.37,29.87,1.904,0.133,16.3,105.2373,12.68,13.71,52.29,0,110.5,13.16,13.48,351.9
"2016-05-19 01:38:00",1646047,1.368,32.63,2.23,0.136,16.5,105.2274,12.65,13.7,52.31,0,110.5,13.16,13.45,354.6
"2016-05-19 01:38:30",1646048,1.444,32.65,2.386,0.194,16.64,105.2108,12.61,13.7,52.29,0,110.5,13.16,13.41,354.6
"2016-05-19 01:39:00",1646049,1.412,30.69,2.036,0.111,16.73,105.208,12.6,13.68,52.33,0,110.5,13.16,13.40,352.7
"2016-05-19 01:39:30",1646050,1.51,28.47,2.079,0.195,16.78,105.208,12.6,13.67,52.41,0,110.5,13.16,13.40,350.5
"2016-05-19 01:40:00",1646051,2.278,29.64,6.096,1.05,18.06,105.208,12.6,13.78,52.58,0,110.5,13.12,13.40,351.6
"2016-05-19 01:40:30",1646052,3.181,37.58,9.43,1.471,19.68,105.208,12.6,13.87,52.59,0,110.5,13.12,13.40,359.6
"2016-05-19 01:41:00",1646053,3.45,40.19,7.154,1.338,20.03,105.2074,12.6,13.89,52.55,0,110.5,13.12,13.40,2.2
"2016-05-19 01:41:30",1646054,2.25,34.3,5.607,1.305,17.57,105.2012,12.59,13.73,52.45,0,110.5,13.12,13.38,356.3
"2016-05-19 01:42:00",1646055,1.443,30.77,1.912,0.104,15.79,105.1975,12.58,13.64,52.31,0,110.5,13.16,13.37,352.8
"2016-05-19 01:42:30",1646056,1.464,28.98,1.834,0.144,15.55,105.1826,12.54,13.63,52.33,0,110.5,13.16,13.34,351.0
"2016-05-19 01:43:00",1646057,1.455,30.27,1.905,0.102,15.65,105.175,12.52,13.62,52.38,0,110.5,13.16,13.32,352.3
"2016-05-19 01:43:30",1646058,1.397,30.36,1.633,0.093,15.84,105.1742,12.52,13.6,52.29,0,110.5,13.16,13.31,352.4
"2016-05-19 01:44:00",1646059,1.444,30,1.671,0.106,16.01,105.1748,12.52,13.59,52.27,0,110.5,13.16,13.32,352.0
"2016-05-19 01:44:30",1646060,1.494,29.75,1.977,0.115,16.15,105.1756,12.52,13.6,52.27,0,110.5,13.16,13.32,351.8
"2016-05-19 01:45:00",1646061,1.319,31.82,1.616,0.07,16.35,105.1771,12.53,13.58,52.27,0,110.5,13.16,13.32,353.8
"2016-05-19 01:45:30",1646062,1.365,32.51,1.903,0.134,16.53,105.1795,12.53,13.58,52.29,0,110.5,13.16,13.33,354.5
"2016-05-19 01:46:00",1646063,1.384,31.48,2.281,0.113,16.67,105.1766,12.52,13.59,52.27,0,110.5,13.16,13.32,353.5
"2016-05-19 01:46:30",1646064,1.539,32.54,1.847,0.167,16.81,105.1631,12.49,13.57,52.25,0,110.5,13.16,13.29,354.5
"2016-05-19 01:47:00",1646065,2.36,37.18,6.279,1.064,18.03,105.1568,12.47,13.67,52.32,0,110.5,13.11,13.27,359.2
"2016-05-19 01:47:30",1646066,2.532,36.96,8.11,1.423,18.83,105.1581,12.48,13.68,52.38,0,110.5,13.11,13.27,359.0